"Pseudo-MPEC" for CEJJ672

Created 2026 Apr 17 11:35:08 UT using Find_Orb

Click here for an explanation of pseudo-MPECs

 
 Astrometry: 
     CEJJ672*1C2026 04 16.35148214 55 43.064+05 04 46.96   ~4G95 20.52GVNEOCPG96
     CEJJ672 1C2026 04 16.35662514 55 46.096+05 04 37.74   ~4G95 20.58GVNEOCPG96
     CEJJ672 1C2026 04 16.36177414 55 49.163+05 04 28.34   ~4G95 20.61GVNEOCPG96
     CEJJ672 1C2026 04 16.36692914 55 52.223+05 04 18.77   ~4G95 20.70GVNEOCPG96
     CEJJ672  C2026 04 16.39399714 56 08.036+05 03 26.45   ~4GAK 20.1 GWNEOCPH01
     CEJJ672  C2026 04 16.39733614 56 10.034+05 03 20.21   ~4GAK 20.1 GWNEOCPH01
     CEJJ672  C2026 04 16.40893014 56 16.983+05 02 58.53   ~4GAK 20.6 GWNEOCPH01
     CEJJ672  C2026 04 16.42001414 56 23.636+05 02 37.89   ~4GAK 20.0 GWNEOCPH01
     CEJJ672 1C2026 04 16.92286015 01 54.275+04 46 07.00   ~4GMZ 19.7 GXNEOCP033
     CEJJ672 1C2026 04 16.92369015 01 54.808+04 46 05.40   ~4GMZ 20.2 GXNEOCP033
     CEJJ672 KC2026 04 16.94260115 02 07.29 +04 45 36.8    ~4GNZ       VNEOCP104
     CEJJ672 KB2026 04 16.95912915 02 17.59 +04 45 02.2    ~4GNZ 20.7 GVNEOCPL01
     CEJJ672 KC2026 04 16.95970115 02 18.25 +04 45 02.5    ~4GNZ 19.9 GVNEOCP104
     CEJJ672 IB2026 04 16.96361915 02 20.49 +04 44 53.0    ~4GNZ 19.9 GVNEOCPL01
     CEJJ672 KB2026 04 16.98158615 02 33.646+04 44 25.33   ~4H6K 20.2 GXNEOCPR49
     CEJJ672 KB2026 04 16.99761115 02 43.31 +04 43 46.3    ~4H0Z 20.2 GVNEOCPI93
     CEJJ672 KB2026 04 17.00369915 02 47.23 +04 43 34.2    ~4H0Z 20.3 GVNEOCPI93
     CEJJ672 KB2026 04 17.00769715 02 50.342+04 43 32.45   ~4H6K 20.4 GXNEOCPR49
     CEJJ672 KB2026 04 17.00962615 02 51.01 +04 43 22.5    ~4H0Z 20.4 GVNEOCPI93
     CEJJ672 |C2026 04 17.17811015 04 46.020+04 39 41.00   ~4H55 20.7 GVNEOCP807
     CEJJ672 |C2026 04 17.18464015 04 50.250+04 39 27.80   ~4H55 20.5 GVNEOCP807
     CEJJ672 |C2026 04 17.19117915 04 54.480+04 39 14.80   ~4H55 20.2 GVNEOCP807
     CEJJ672 KC2026 04 17.25673615 05 38.46 +04 35 02.5    ~4H6Z 20.5 GVNEOCPH21
     CEJJ672 KC2026 04 17.25953715 05 40.29 +04 34 56.4    ~4H6Z 20.3 GVNEOCPH21
     CEJJ672 KC2026 04 17.26233515 05 42.12 +04 34 50.8    ~4H6Z 20.3 GVNEOCPH21
     CEJJ672 1C2026 04 17.27274015 05 51.133+04 34 38.42   ~4H6o 20.58GVNEOCPI52
     CEJJ672 1C2026 04 17.27311815 05 51.403+04 34 37.42   ~4H6o 20.47GVNEOCPI52
     CEJJ672 1C2026 04 17.27349915 05 51.601+04 34 36.70   ~4H6o 20.76GVNEOCPI52
     CEJJ672 1C2026 04 17.27387715 05 51.878+04 34 36.84   ~4H6o 20.34GVNEOCPI52

Station data:
(033) Karl Schwarzschild Observatory, Tautenburg  (N50.980139 E11.711240)
   Germany.  Observer B. Stecklum. 1.34-m f/3 Schmidt + CCD.
(104) San Marcello Pistoiese  (N44.064178 E10.803750)  Italy.  Observers P.
   Bacci, M. Maestripieri. Measurers P. Bacci, L. Tesi, G. Fagioli. 0.60-m
   reflector + CCD.
(807) Cerro Tololo Observatory, La Serena  (S30.169133 W70.805900)  Chile.
   Observer R. Holmes. 0.61-m f/6.5 astrograph + CCD.
(G96) Mt. Lemmon Survey  (N32.442729 W110.788720)  US/Arizona.  Observer E.
   J. Christensen. Measurers T. Beuden, V. F. Carvajal, D. Fay, J. B.
   Fazekas, D. C. Fuls, A. R. Gibbs, A. D. Grauer, H. Gröller, J. K. Hogan,
   R. A. Kowalski, S. M. Larson, G. J. Leonard, D. Rankin, R. L. Seaman, F.
   C. Shelly, K. W. Wierzchoś. 1.5-m reflector + 10K CCD.
(H01) Magdalena Ridge Observatory, Socorro  (N33.984833 W107.189333)  US/New
   Mexico.  Observers W. H. Ryan, E. V. Ryan. Measurer W. H. Ryan. 2.4-m
   f/8.9 reflector + CCD.
(H21) Astronomical Research Observatory, Westfield  (N39.483054 W87.968270)
   US/Illinois.  Observer R. Holmes. Measurers S. Foglia, L. Buzzi, T.
   Linder, R. Holmes. 0.40-m f/5.32 astrograph + CCD.
(I52) Steward Observatory, Mt. Lemmon Station  (N32.442570 W110.788920)
   US/Arizona. Measurers T. Beuden, V. F. Carvajal, D. Fay, J. B. Fazekas, D.
   C. Fuls, A. R. Gibbs, A. D. Grauer, H. Gröller, J. K. Hogan, R. A.
   Kowalski, S. M. Larson, G. J. Leonard, D. Rankin, R. L. Seaman, F. C.
   Shelly, K. W. Wierzchoś. 1.0-m prime focus + CCD.
(I93) St Pardon de Conques  (N44.558670 W0.202960)  France.  Observers F.
   Losse, W. D'Anna. Measurer F. Losse. 0.40-m f/3.7 reflector + CCD.
(L01) Višnjan Observatory, Tičan  (N45.290897 E13.749300)  Croatia.
   Observers K. Korlević, L. Poropat. Measurer K. Korlevic. 1.0-m f/2.9
   reflector + CCD.
(R49) Observatorio Villuercas-Navezuelas, Navezuelas  (N39.512739 W5.439520)
   Spain.

Orbital elements:  CEJJ672
   Perihelion 2026 May 16.319817 +/- 0.0452 TT =  7:40:32.1 (JD 2461176.819817)
Epoch 2026 Apr 17.0 TT = JDT 2461147.5   Earth MOID: 0.0009   Ju: 0.8883
M 353.005868849 +/- 0.048           Ma: 0.0362                   AutoNEOCP
n   0.238546210 +/- 0.00151         Peri.  185.338124 +/- 0.13
a   2.574864434 +/- 0.0108          Node    56.784841 +/- 0.07
e   0.60740299 +/- 0.00163          Incl.    3.400982 +/- 0.008
P   4.13173                H 24.64  G  0.15   U  8.4
q 1.010884069 +/- 0.000254    Q 4.138844800 +/- 0.0216    (J2000 ecliptic)
From 29 observations 2026 Apr. 16-17 (22.1 hr); mean residual 0".23
Residuals in arcseconds: 
260416 G96  .18+  .14-    260416 104  .37-  .01-    260417 807  .11+  .07-    
260416 G96  .16-  .07+    260416 L01  .19-  .33-    260417 807  .08+  .29+    
260416 G96  .04-  .12+    260416 104  .20+  .40-    260417 H21  .11+  .32+    
260416 G96  .10-  .03+    260416 L01  .31+  .59-    260417 H21  .09+  .03+    
260416 H01  .01+  .14+    260416 R49  .12-  .43+    260417 H21  .11+  .25+    
260416 H01  .03+  .11+    260416 I93  .16-  .08+    260417 I52  .05-  .09-    
260416 H01  .11+  .02+    260417 I93  .15+  .16+    260417 I52  .28+  .31-    
260416 H01  .08+  .09+    260417 R49  .19-  .41-    260417 I52  .50-  .24-    
260416 033  .06+  .07-    260417 I93  .09-  .33+    260417 I52  .07-  .68+    
260416 033  .06+  .03-    260417 807  .08+  .18-    

Ephemerides (geocentric):
Date (UTC) HH   RA             Dec           delta  r     elong  mag " sig PA
---- --------  ------------   ------------  ------ ------ -----  --- --------
2026 04 17 12  15 08 25.581   +04 27 25.41  .08452 1.0802 153.6 20.6 .097 130
2026 04 17 13  15 08 54.866   +04 25 55.32  .08434 1.0800 153.5 20.6 .092 130
2026 04 17 14  15 09 24.267   +04 24 24.71  .08416 1.0798 153.4 20.6 .086 129
2026 04 17 15  15 09 53.786   +04 22 53.58  .08398 1.0796 153.4 20.6 .080 129
2026 04 17 16  15 10 23.422   +04 21 21.92  .08380 1.0794 153.3 20.6 .073 128
2026 04 17 17  15 10 53.176   +04 19 49.73  .08363 1.0792 153.2 20.6 .065 128
2026 04 17 18  15 11 23.048   +04 18 17.01  .08345 1.0790 153.2 20.6 .057 128
2026 04 17 19  15 11 53.039   +04 16 43.76  .08327 1.0788 153.1 20.6 .049 128
2026 04 17 20  15 12 23.150   +04 15 09.98  .08310 1.0787 153.0 20.6 .040 128
2026 04 17 21  15 12 53.380   +04 13 35.66  .08292 1.0785 153.0 20.6 .030 129
2026 04 17 22  15 13 23.730   +04 12 00.80  .08274 1.0783 152.9 20.6 .019 132
2026 04 17 23  15 13 54.200   +04 10 25.40  .08257 1.0781 152.8 20.5 8.6m 144
2026 04 18 00  15 14 24.792   +04 08 49.46  .08239 1.0779 152.8 20.5 4.9m  80
2026 04 18 01  15 14 55.504   +04 07 12.97  .08222 1.0777 152.7 20.5 .016 110
2026 04 18 02  15 15 26.339   +04 05 35.93  .08205 1.0775 152.6 20.5 .029 114
2026 04 18 03  15 15 57.295   +04 03 58.35  .08187 1.0773 152.6 20.5 .043 116
2026 04 18 04  15 16 28.374   +04 02 20.21  .08170 1.0772 152.5 20.5 .057 117
2026 04 18 05  15 16 59.576   +04 00 41.52  .08153 1.0770 152.4 20.5 .072 117
2026 04 18 06  15 17 30.901   +03 59 02.27  .08136 1.0768 152.4 20.5 .088 117
2026 04 18 07  15 18 02.350   +03 57 22.47  .08118 1.0766 152.3 20.5 .104 117
2026 04 18 08  15 18 33.923   +03 55 42.10  .08101 1.0764 152.2 20.5 .122 117
2026 04 18 09  15 19 05.621   +03 54 01.18  .08084 1.0762 152.2 20.5 .140 117
2026 04 18 10  15 19 37.443   +03 52 19.69  .08067 1.0760 152.1 20.5 .158 117
2026 04 18 11  15 20 09.390   +03 50 37.63  .08050 1.0759 152.0 20.5 .178 117
2026 04 18 12  15 20 41.464   +03 48 55.01  .08034 1.0757 151.9 20.5 .198 117
2026 04 18 13  15 21 13.663   +03 47 11.81  .08017 1.0755 151.9 20.5 .219 116
2026 04 18 14  15 21 45.988   +03 45 28.05  .08000 1.0753 151.8 20.5 .240 116
2026 04 18 15  15 22 18.441   +03 43 43.71  .07983 1.0751 151.7 20.5 .263 116
2026 04 18 16  15 22 51.020   +03 41 58.79  .07967 1.0749 151.6 20.5 .286 116
2026 04 18 17  15 23 23.727   +03 40 13.30  .07950 1.0747 151.6 20.5 .310 116
2026 04 18 18  15 23 56.562   +03 38 27.22  .07933 1.0746 151.5 20.5 .335 115
2026 04 18 19  15 24 29.526   +03 36 40.57  .07917 1.0744 151.4 20.5 .361 115
2026 04 18 20  15 25 02.617   +03 34 53.33  .07900 1.0742 151.3 20.5 .387 115
2026 04 18 21  15 25 35.838   +03 33 05.51  .07884 1.0740 151.3 20.5 .414 115
2026 04 18 22  15 26 09.188   +03 31 17.10  .07868 1.0738 151.2 20.5 .443 115
2026 04 18 23  15 26 42.668   +03 29 28.10  .07851 1.0736 151.1 20.5 .472 115
2026 04 19 00  15 27 16.278   +03 27 38.51  .07835 1.0735 151.0 20.5 .501 115
2026 04 19 01  15 27 50.018   +03 25 48.33  .07819 1.0733 150.9 20.5 .532 114
2026 04 19 02  15 28 23.890   +03 23 57.55  .07803 1.0731 150.9 20.5 .564 114
2026 04 19 03  15 28 57.892   +03 22 06.18  .07787 1.0729 150.8 20.5 .596 114
2026 04 19 04  15 29 32.025   +03 20 14.21  .07771 1.0727 150.7 20.5 .630 114
2026 04 19 05  15 30 06.290   +03 18 21.64  .07755 1.0726 150.6 20.5 .664 114
2026 04 19 06  15 30 40.688   +03 16 28.47  .07739 1.0724 150.5 20.5 .699 114
2026 04 19 07  15 31 15.217   +03 14 34.70  .07723 1.0722 150.5 20.5 .736 114
2026 04 19 08  15 31 49.880   +03 12 40.33  .07707 1.0720 150.4 20.5 .773 113
2026 04 19 09  15 32 24.675   +03 10 45.35  .07691 1.0718 150.3 20.5 .811 113
2026 04 19 10  15 32 59.604   +03 08 49.76  .07676 1.0717 150.2 20.5 .850 113
2026 04 19 11  15 33 34.667   +03 06 53.56  .07660 1.0715 150.1 20.5 .890 113